sat.trackr.live / text

‹ back to catalog

STARLINK-3756

NORAD 52309 · 2022-041BA

PAYLOAD ACTIVE UNKNOWN

§ Identity

Operator
Country
US
Launch date
2022-04-21
Launch site
AFETR
Launch vehicle
Mass (kg)
RCS (m²)

Purposes: comms

External: N2YO · Heavens-Above · Gunter

§ Orbital elements

Epoch: 2026-05-25T03:27:01.620000Z

Period
95.44 min
Inclination
53.2138°
Eccentricity
0.0000937
Mean motion
15.08851342 rev/d
Perigee alt
539.1 km
Apogee alt
540.4 km
Semi-major
6,917.8 km
B*
3.7764e-5
RAAN
105.9009°
Arg perigee
63.6918°
Mean anomaly
296.4170°
Rev number
22,740

§ Raw data

STARLINK-37561 52309U 22041BA  26145.14376875  .00000313  00000+0  37764-4 0  99942 52309  53.2138 105.9009 0000937  63.6918 296.4170 15.08851342227400

JSON: /api/v1/satellites/52309 · /tle

For live sub-satellite position, see the globe view (requires WebGL).

§ Visibility from observer

Set your observer location to see the next 7 days of passes ≥ 10°. The values pass through the URL so the page stays shareable.

No JS? Fill the form by hand. The geolocation button needs JavaScript.